Voltar ao catálogo

COSMOS 2079

GLONASS

AtivoNavegaçãoMEO
NORAD 20619·PAYLOAD·🇷🇺 Russia

Lançado May 19, 1990 de Baikonur Cosmodrome

Loading…

Próximas Passagens (próximas 24 horas)

TLE

AtualizadoSource: Space-Track

Época: Sep 13, 2026, 01:55 UTC

1 20619U 90045A   26256.07986299 -.00000040  00000-0  00000-0 0  9992
2 20619  64.6523 305.3517 0048646 204.6350 216.7789  2.13103424282639

Acompanhe COSMOS 2079 em tempo real com AllMySat

Download on the App Store